Vorticity
8 5 16 10 7 6 6 6 5 4 5 14 4 17 16 12 20 12 11 25 20 12 8 8 8 10 6 13 17 13 17 10 10 8 14 16 13 12 20 17 12 8 3
8 2 8 14 10 6 6 6 5 4 3 8 12 4 6 16 14 15 11 11 16 17 23 18 24 20 18 16 14 6 6 7 8 12 11 11 13 11 11 9 10 9 7
8 1 5 3 9 11 7 7 7 6 4 5 7 13 10 7 4 4 6 4 4 4 4 3 4 3 4 4 3 3 2 4 6 7 8 10 8 7 5 6 6 6 6
9 8 2 6 6 7 8 8 6 5 6 5 5 4 7 10 10 8 6 5 6 6 6 6 7 6 6 6 6 6 6 5 5 5 5 5 5 4 5 5 5 6 7
-5 -3 6 -0 7 8 6 6 8 7 6 6 6 5 5 2 3 3 2 3 4 4 4 4 5 5 4 3 3 3 3 2 3 2 2 3 4 6 6 4 4 4 3
6 2 5 2 -3 6 9 6 6 6 12 9 13 9 7 7 6 5 6 7 7 5 6 6 6 5 3 7 11 11 11 6 4 6 5 5 5 6 10 12 10 9 8
3 6 5 7 -2 5 12 3 8 2 7 8 2 7 9 8 7 7 7 6 6 7 7 7 8 7 6 6 6 5 5 4 3 4 3 3 3 4 5 -2 8 5 2
0 4 2 3 -0 7 -9 30 9 7 6 4 6 6 5 5 4 3 4 5 6 7 8 8 9 8 8 7 7 6 5 3 2 3 2 3 5 5 4 4 4 3 5
-2 0 3 3 16 3 10 -14 26 13 6 8 7 3 4 6 2 -1 -1 0 2 4 5 5 5 4 3 1 4 5 5 6 6 6 5 5 5 7 9 10 10 11 11
-2 22 9 15 3 5 2 -16 21 3 9 16 0 -2 2 -3 -1 5 8 10 9 0 -2 -1 0 4 5 3 3 6 5 5 5 4 3 4 6 7 6 7 6 5 8
8 6 1 5 8 7 8 2 33 -7 2 -0 7 9 6 2 -0 -10 -6 -5 -1 4 3 4 2 8 6 5 4 6 7 8 10 11 10 9 8 6 6 6 6 7 7
-2 -6 -1 -8 -8 -2 -8 -14 -7 70 -23 -9 6 0 5 3 9 -6 4 10 6 3 7 12 9 8 9 9 9 8 7 5 4 5 6 7 7 10 9 5 4 6 7
3 16 41 68 53 25 42 26 31 9 -28 4 18 26 10 -13 13 17 19 15 17 19 16 15 11 8 10 11 9 5 5 6 7 9 9 9 8 8 11 11 11 10 10
10 9 7 10 14 15 29 28 29 33 31 38 48 42 31 28 19 11 3 -2 -4 -3 2 3 2 4 7 7 9 11 11 12 10 10 10 13 12 13 12 15 14 15 22
13 17 18 15 17 24 22 21 13 14 14 10 6 4 4 3 4 7 9 8 9 10 13 14 17 17 15 13 11 9 8 9 9 10 11 12 11 12 13 14 17 12 8
12 13 11 5 3 5 2 2 3 3 3 3 3 6 4 5 9 9 8 7 6 6 8 8 9 8 9 9 8 7 8 8 9 10 10 10 10 12 13 15 13 14 13
11 9 3 3 3 5 7 5 4 6 4 2 5 4 3 4 5 5 4 5 5 6 6 6 6 6 9 9 9 9 9 8 9 8 9 13 13 12 12 13 13 13 11
10 12 10 13 16 9 5 7 6 8 8 7 7 6 6 7 8 8 8 8 6 4 4 4 3 4 7 9 7 9 9 10 11 10 10 8 10 13 11 10 10 10 11
11 7 8 9 9 8 8 10 8 7 4 4 6 6 6 7 8 5 3 2 5 6 8 10 9 10 9 8 10 10 11 12 9 10 8 9 9 8 7 8 9 11 11
6 3 -0 1 2 4 2 -0 5 7 4 5 5 6 6 4 2 2 5 6 7 9 11 9 9 9 9 11 11 11 10 10 10 11 10 10 11 12 13 12 9 8 7
5 6 7 8 7 7 8 8 8 7 6 7 7 6 7 7 8 10 9 9 10 10 10 9 10 10 11 12 14 13 13 12 13 14 14 14 12 10 8 9 10 11 12
5 5 5 5 5 6 6 5 6 7 6 6 7 8 9 10 10 11 12 13 12 12 12 13 14 15 16 15 15 14 12 9 9 8 8 8 8 9 10 12 13 15 19
9 9 8 8 8 8 9 9 9 9 10 12 14 14 15 14 13 11 11 11 11 13 14 14 12 11 9 8 7 7 7 7 7 8 11 12 13 14 17 20 23 27 28
13 14 14 13 14 15 16 16 17 16 13 11 11 10 9 9 10 8 8 10 10 9 9 9 8 6 6 7 8 8 8 10 13 15 16 17 22 27 28 29 28 26 21
8 8 8 8 8 8 8 9 9 10 11 11 11 11 9 8 8 8 8 9 8 8 7 7 8 9 10 11 13 14 16 16 15 20 29 31 30 30 24 21 15 11 11
14 14 14 15 15 13 12 11 9 7 6 6 7 9 9 9 8 7 7 8 10 11 12 12 14 15 15 15 17 20 23 28 31 31 29 26 20 17 14 10 11 10 11
Height
5668 5671 5673 5676 5678 5679 5680 5680 5681 5682 5681 5680 5680 5680 5682 5685 5688 5692 5695 5697 5700 5703 5706 5708 5710 5711 5713 5713 5714 5714 5715 5714 5715 5716 5715 5717 5716 5716 5716 5715 5715 5716 5715
5664 5667 5669 5671 5673 5675 5676 5677 5677 5678 5679 5679 5679 5679 5681 5683 5686 5688 5691 5694 5696 5698 5700 5702 5703 5704 5706 5706 5706 5707 5708 5708 5708 5711 5711 5711 5709 5708 5708 5707 5707 5707 5706
5659 5662 5664 5666 5668 5670 5672 5672 5674 5675 5676 5677 5678 5680 5681 5682 5684 5687 5688 5691 5693 5694 5695 5696 5697 5698 5699 5699 5700 5701 5702 5702 5702 5702 5707 5704 5703 5701 5699 5698 5698 5697 5695
5654 5658 5659 5661 5663 5666 5667 5669 5670 5671 5672 5673 5674 5676 5677 5680 5682 5683 5684 5685 5687 5688 5689 5690 5691 5692 5693 5693 5693 5694 5694 5694 5693 5692 5695 5695 5693 5694 5691 5691 5688 5687 5686
5648 5651 5653 5656 5658 5660 5662 5663 5664 5666 5667 5668 5669 5672 5674 5675 5676 5677 5679 5681 5682 5682 5683 5684 5685 5686 5686 5686 5687 5688 5686 5684 5685 5683 5681 5682 5683 5684 5682 5680 5678 5678 5676
5640 5642 5646 5650 5653 5654 5656 5657 5658 5660 5661 5662 5663 5666 5668 5669 5670 5671 5672 5673 5674 5675 5677 5678 5678 5678 5678 5678 5677 5677 5675 5672 5672 5672 5672 5670 5671 5670 5670 5669 5667 5665 5663
5631 5633 5637 5642 5645 5648 5649 5650 5652 5654 5655 5655 5656 5658 5661 5663 5664 5664 5665 5665 5666 5667 5668 5668 5667 5668 5668 5668 5667 5665 5664 5662 5661 5660 5659 5657 5656 5656 5656 5656 5652 5651 5647
5622 5625 5629 5633 5637 5639 5641 5642 5643 5645 5647 5649 5650 5651 5653 5656 5656 5656 5657 5657 5658 5658 5658 5659 5659 5658 5658 5657 5657 5655 5653 5652 5651 5650 5647 5644 5642 5642 5640 5637 5635 5632 5631
5615 5618 5621 5624 5626 5628 5631 5633 5635 5635 5638 5640 5642 5642 5644 5646 5647 5648 5649 5650 5650 5649 5649 5649 5649 5648 5648 5647 5645 5643 5642 5640 5639 5637 5635 5632 5630 5627 5623 5620 5616 5613 5610
5606 5611 5609 5615 5619 5620 5622 5624 5625 5626 5628 5630 5633 5634 5634 5635 5637 5638 5638 5639 5639 5639 5638 5637 5636 5636 5635 5633 5631 5629 5627 5625 5623 5621 5618 5616 5613 5610 5606 5602 5598 5594 5590
5596 5601 5603 5605 5607 5609 5611 5613 5614 5615 5618 5619 5622 5623 5624 5624 5624 5625 5626 5626 5626 5625 5624 5623 5622 5622 5620 5618 5616 5614 5612 5609 5607 5603 5600 5597 5593 5590 5586 5583 5578 5574 5570
5585 5586 5589 5591 5593 5595 5598 5599 5601 5600 5601 5606 5606 5608 5610 5610 5610 5611 5611 5611 5610 5610 5609 5608 5607 5606 5604 5602 5600 5598 5595 5592 5589 5586 5582 5579 5575 5571 5567 5563 5557 5552 5547
5573 5574 5573 5577 5580 5581 5584 5584 5586 5588 5587 5589 5590 5591 5593 5593 5595 5596 5596 5595 5596 5595 5595 5594 5593 5591 5589 5586 5584 5581 5577 5574 5571 5567 5563 5558 5554 5549 5545 5541 5536 5531 5525
5565 5566 5567 5568 5569 5571 5573 5574 5574 5576 5578 5579 5580 5580 5581 5581 5581 5582 5583 5582 5582 5582 5581 5579 5578 5576 5574 5570 5567 5564 5560 5556 5553 5548 5544 5540 5535 5531 5526 5521 5515 5509 5503
5558 5559 5560 5561 5562 5563 5563 5564 5566 5568 5569 5570 5570 5571 5572 5572 5572 5572 5571 5570 5568 5567 5565 5563 5562 5559 5556 5553 5550 5547 5543 5540 5536 5531 5526 5520 5515 5510 5505 5499 5494 5489 5484
5550 5551 5552 5553 5554 5554 5556 5557 5559 5560 5560 5560 5560 5560 5560 5560 5559 5558 5556 5554 5552 5550 5549 5546 5544 5542 5539 5536 5533 5529 5525 5521 5516 5511 5505 5500 5495 5490 5484 5479 5474 5469 5463
5545 5544 5545 5546 5547 5547 5547 5548 5548 5548 5548 5547 5547 5547 5546 5545 5544 5542 5540 5538 5537 5535 5532 5529 5526 5523 5520 5516 5513 5509 5505 5500 5495 5490 5485 5480 5475 5469 5464 5459 5453 5448 5443
5535 5536 5536 5537 5537 5537 5537 5537 5536 5536 5536 5535 5534 5532 5531 5530 5528 5526 5525 5523 5520 5517 5514 5511 5507 5503 5500 5496 5492 5488 5484 5479 5474 5470 5464 5459 5454 5450 5444 5439 5433 5427 5422
5524 5524 5524 5523 5524 5524 5524 5523 5523 5523 5522 5520 5519 5517 5515 5513 5511 5509 5507 5504 5501 5498 5494 5490 5487 5483 5479 5475 5471 5467 5462 5458 5453 5448 5443 5439 5434 5429 5423 5418 5412 5407 5401
5512 5511 5511 5511 5511 5510 5509 5509 5507 5506 5505 5503 5501 5500 5497 5495 5493 5489 5486 5483 5480 5477 5473 5470 5466 5462 5458 5453 5449 5445 5440 5435 5431 5426 5422 5417 5412 5406 5401 5395 5390 5385 5379
5499 5498 5496 5495 5495 5494 5493 5492 5490 5489 5487 5485 5483 5481 5478 5476 5473 5470 5467 5463 5460 5456 5452 5449 5445 5440 5436 5432 5428 5423 5419 5415 5410 5405 5400 5395 5389 5384 5379 5373 5367 5361 5355
5485 5484 5482 5481 5479 5478 5476 5475 5473 5471 5469 5467 5464 5461 5459 5456 5453 5449 5446 5442 5438 5435 5431 5428 5424 5420 5415 5410 5406 5402 5398 5393 5388 5383 5378 5373 5367 5361 5355 5349 5343 5338 5332
5469 5467 5466 5464 5462 5460 5458 5456 5454 5452 5449 5447 5445 5441 5438 5435 5431 5428 5425 5421 5418 5414 5410 5406 5402 5398 5394 5389 5385 5381 5376 5371 5366 5361 5356 5350 5344 5338 5332 5326 5321 5316 5311
5452 5450 5448 5446 5444 5442 5440 5437 5435 5432 5429 5427 5423 5420 5417 5414 5410 5407 5404 5400 5396 5393 5388 5385 5381 5376 5372 5368 5363 5358 5353 5349 5343 5338 5332 5327 5321 5316 5311 5307 5302 5298 5294
5434 5431 5429 5427 5425 5423 5421 5418 5415 5412 5410 5406 5403 5400 5396 5393 5390 5386 5383 5379 5374 5370 5366 5362 5358 5353 5349 5344 5339 5334 5330 5325 5320 5315 5311 5306 5302 5298 5295 5292 5289 5285 5281
5414 5412 5410 5408 5406 5403 5401 5398 5395 5392 5389 5386 5382 5379 5375 5371 5367 5363 5360 5355 5351 5347 5342 5338 5333 5329 5324 5319 5314 5311 5307 5303 5299 5295 5292 5290 5287 5285 5282 5279 5276 5272 5268